Location: Pian di Sc�
(43.6333°N, 11.5500°E)
Time: 18:14:51
(UTC+00:00)

Cosmos 1626 Rocket - Pass Details

Date: 07 August 2020
Orbit: 603 x 631 km, 82.5° (Epoch: 17 September)

Event Time Altitude Azimuth Distance (km) Brightness Sun altitude
Rises 03:09:14 0° 341° (NNW) 2,872 7.2 -10.4°
Reaches altitude 10° 03:11:38 10° 331° (NNW) 1,961 6.2 -10.0°
Maximum altitude 03:15:25 30° 270° (W) 1,082 4.4 -9.5°
Drops below altitude 10° 03:19:11 10° 209° (SSW) 1,943 5.6 -8.9°
Enters shadow 03:19:52 - 205° (SSW) 2,188 5.9 -8.8°
